Location: Unspecified
(0.0000°N, 0.0000°E)
Time: 16:20:09
(UTC+00:00)

Hubble Space Telescope - Pass Details

Date: 12 August 2017
Orbit: 538 x 542 km, 28.5° (Epoch: 17 August)

Event Time Altitude Azimuth Distance (km) Brightness Sun altitude
Exits shadow 03:58:08 11° 14° (NNE) 1,690 3.6 -30.5°
Drops below altitude 10° 03:58:27 10° 17° (NNE) 1,775 3.8 -30.5°
Sets 04:01:14 0° 36° (NE) 2,663 5.1 -29.8°
